Location: Elstree
(51.6403°N, 0.2969°W)
Time: 15:15:31
(UTC+00:00)

Tiangong - Visible Passes

Search period start: 15 April 2024 00:00
Search period end: 25 April 2024 00:00
Orbit: 371 x 381 km, 41.5° (Epoch: 15 April)

Date Brightness Start Highest point End Pass type
(mag) Time Alt. Az. Time Alt. Az. Time Alt. Az.
19 Apr 0.2 20:29:44 10° SSW 20:30:29 11° S 20:30:29 11° S visible
20 Apr 0.4 21:03:00 10° SSW 21:03:12 11° SSW 21:03:12 11° SSW visible
21 Apr 0.1 20:00:51 10° SSW 20:02:18 13° S 20:03:46 10° SSE visible
22 Apr 0.1 20:34:33 10° SSW 20:35:56 12° S 20:36:17 12° S visible
24 Apr 0.3 20:06:19 10° SSW 20:07:17 11° S 20:08:16 10° S visible
